Regional Weather Roundup
Issued by NWS

Home | Current Version | Previous Version | Text Only | Print | Product List | Glossary Off
Versions: 1 2 3 4 5 6 7 8 9 10 11 12 13 14 15 16 17 18 19 20 21 22 23 24 25 26 27 28 29 30 31 32 33 34 35 36 37 38 39 40 41 42 43 44 45 46 47 48 49 50

000
ASUS43 KFSD 170502
RWRSD

WEATHER ROUNDUP FOR SOUTH DAKOTA
NATIONAL WEATHER SERVICE SIOUX FALLS SD
1200 AM CDT THU AUG 17 2017

NOTE: "FAIR" INDICATES FEW OR NO CLOUDS BELOW 12,000 FEET WITH NO
SIGNIFICANT WEATHER AND/OR OBSTRUCTIONS TO VISIBILITY.


SDZ001>005-009-010-012>017-170600-
NORTHWEST AND NORTH CENTRAL SOUTH DAKOTA

CITY           SKY/WX    TMP DP  RH WIND       PRES   REMARKS
BUFFALO          N/A     63  50  62 SE9       29.89S
FAITH            N/A     63  49  60 S5        29.96R
MOBRIDGE       CLEAR     57  54  89 NW5       29.89S
$$

SDZ012>016-024>037-041>051-057-063-072>074-170600-
SOUTHWEST AND SOUTH CENTRAL SOUTH DAKOTA

CITY           SKY/WX    TMP DP  RH WIND       PRES   REMARKS
RAPID CTY ARPT CLEAR     62  51  67 S3        30.00S
PIERRE         CLEAR     59  54  83 NW8       29.90S
CUSTER         CLEAR     51  45  79 NW3       30.13S
ELLSWORTH AFB  CLEAR     65  52  62 SW5       29.99S
PHILIP         CLEAR     56  50  80 NW3       29.96S
PINE RIDGE     CLEAR     56  53  90 CALM      30.03R
SPEARFISH      FAIR      63  46  55 S6        30.01S
WINNER         FAIR      61  54  77 W5        29.94S
$$

SDZ004>011-016>023-039-040-170600-
NORTHEAST SOUTH DAKOTA

CITY           SKY/WX    TMP DP  RH WIND       PRES   REMARKS
ABERDEEN       CLOUDY    62  61  96 N9        29.84S
WATERTOWN      CLOUDY    64  64 100 N13       29.76F
BROOKINGS      LGT RAIN  65  64  97 NW16      29.74F
SISSETON         N/A     65  64  97 N16       29.76F
$$

SDZ017-020-022-023-036>040-048>070-170600-
SOUTHEAST SOUTH DAKOTA

CITY           SKY/WX    TMP DP  RH WIND       PRES   REMARKS
SIOUX FALLS    LGT RAIN  67  67 100 NW13      29.75F
HURON          CLOUDY    64  63  96 NW12      29.83S
CHAMBERLAIN    CLEAR     63  62  97 NW6       29.91R
MITCHELL       LGT RAIN  66  64  93 NW10      29.84S
YANKTON        CLOUDY    67  63  87 W15       29.81
$$

ABBREVIATIONS USED IN REMARKS
   TC - TEMPERATURE IN CELSIUS
  WCI - WIND CHILL INDEX
   HX - HEAT INDEX
  VSB - VISIBILITY





USA.gov is the U.S. government's official web portal to all federal, state and local government web resources and services.